User: anonymous   Login
Location: Bouchavesnes-Bergen
(49.9859°N, 2.9203°E)
Time: 05:48:44
(UTC+00:00)
Language:

Cosmos 1812 - Orbit

View from above orbital plane
View from above orbital plane
View from above satellite
View from above satellite

Ground track
Ground track

The orbit data is extracted from the following two-line orbital elements,

1 17295U 87003A   21128.42698330  .00000793  00000-0  39725-4 0  9990
2 17295  82.5155 185.2193 0001923 225.0067 135.1010 15.15972596874176
Epoch (UTC): 08 May 2021 10:14:51
Eccentricity: 0.0001923
inclination: 82.5155°
perigee height: 517 km
apogee height: 519 km
right ascension of ascending node: 185.2193°
argument of perigee: 225.0067°
revolutions per day: 15.15972596
mean anomaly at epoch: 135.1010°
orbit number at epoch: 87417

The dashed part of the orbit path shows where the satellite is in the earth's shadow,  

DLR